Tracking 29790 objects as of 11-Oct-2024
HD Live streaming from Space Station
objects crossing your sky now

FENGYUN 1C DEB

Track FENGYUN 1C DEB now!
10-day predictions


NORAD ID: 31627
Int'l Code: 1999-025CAH
Perigee: 756.9 km
Apogee: 833.7 km
Inclination: 98.6 °
Period: 100.6 minutes
Semi major axis: 7166 km
RCS: 0.013 m2 (small)
Launch date: May 10, 1999
Source: People's Republic of China (PRC)
Launch site: Taiyaun Space Center, China (TSC)

Note: This is SATELLITE DEBRIS
Your satellite tracking list
Your tracking list is empty




NASA's NSSDC Master Catalog

Two Line Element Set (TLE):
1 31627U 99025CAH 24284.39757344  .00012317  00000-0  46103-2 0  9996
2 31627  98.5717 331.3377 0053561 342.5453  17.3887 14.31076853586293
Source of the keplerian elements: AFSPC